Weather reports worldwide

Advertisment
Cordoba Aeropuerto (AWS), Spain (8410): temperature & dewpoint: 24.10.2020 20:00:00 - 30.10.2020 20:00:00 (CET)Cordoba Aeropuerto (AWS), Spain (8410): wind speed: 24.10.2020 20:00:00 - 30.10.2020 20:00:00 (CET)Cordoba Aeropuerto (AWS), Spain (8410): wind direction: 24.10.2020 20:00:00 - 30.10.2020 20:00:00 (CET)Cordoba Aeropuerto (AWS), Spain (8410): reduced air pressure: 24.10.2020 20:00:00 - 30.10.2020 20:00:00 (CET)Cordoba Aeropuerto (AWS), Spain (8410): visibility: 24.10.2020 20:00:00 - 30.10.2020 20:00:00 (CET)
Date & Time tt [°C] td [°C] ff [km/h] ff [kn] dd ppp [hPa] vv [km]
30.10.2020 20:00:00 - - - - - - -
30.10.2020 19:00:00 20,3 13,3 4 2 WSW 1022,6 30
30.10.2020 18:00:00 23,6 11,6 5 3 W 1022,3 -
30.10.2020 17:00:00 26,6 10,6 8 4 W 1022,0 -
30.10.2020 16:00:00 28,2 9,9 4 2 S 1022,1 30
30.10.2020 15:00:00 27,4 9,7 4 2 ESE 1022,4 -
30.10.2020 14:00:00 25,7 11,4 8 4 ESE 1023,2 -
30.10.2020 13:00:00 23,7 11,1 13 7 E 1024,2 30
30.10.2020 12:00:00 21,4 11,6 16 9 E 1025,0 -
30.10.2020 11:00:00 19,1 12,0 16 9 E 1025,5 -
30.10.2020 10:00:00 16,2 12,2 11 6 E 1025,9 40
30.10.2020 09:00:00 13,4 11,1 8 4 E 1025,8 -
30.10.2020 08:00:00 10,3 9,2 8 4 E 1025,4 -
30.10.2020 07:00:00 9,5 8,3 0 0 N 1025,4 -
30.10.2020 06:00:00 9,8 8,6 0 0 N 1025,3 -
30.10.2020 05:00:00 10,4 9,0 0 0 N 1025,0 -
30.10.2020 04:00:00 10,7 9,0 2 1 WSW 1025,0 -
30.10.2020 03:00:00 11,4 9,5 0 0 N 1025,0 -
30.10.2020 02:00:00 11,8 9,9 4 2 N 1024,9 -
30.10.2020 01:00:00 12,6 10,7 4 2 NNE 1025,0 -
30.10.2020 00:00:00 13,6 11,5 4 2 ENE 1025,3 -
29.10.2020 23:00:00 14,3 11,4 2 1 SSE 1025,1 -
29.10.2020 22:00:00 15,2 12,1 0 0 N 1024,7 -
29.10.2020 21:00:00 15,5 12,1 4 2 WSW 1024,2 -
29.10.2020 20:00:00 18,4 12,4 0 0 N 1023,7 -
29.10.2020 19:00:00 20,9 12,3 2 1 SE 1023,0 30
29.10.2020 18:00:00 25,7 10,3 4 2 N 1022,4 -
29.10.2020 17:00:00 26,4 10,0 8 4 NE 1022,5 -
29.10.2020 16:00:00 26,3 10,9 8 4 ENE 1022,7 40
29.10.2020 15:00:00 25,1 11,0 13 7 NE 1023,1 -
29.10.2020 14:00:00 23,9 11,3 13 7 ENE 1024,0 -
29.10.2020 13:00:00 23,0 11,7 15 8 E 1024,9 40
29.10.2020 12:00:00 21,1 12,2 18 10 ENE 1025,8 -
29.10.2020 11:00:00 18,8 12,1 13 7 E 1026,1 -
29.10.2020 10:00:00 16,6 12,3 15 8 E 1026,2 40
29.10.2020 09:00:00 13,9 11,1 15 8 E 1025,9 -
29.10.2020 08:00:00 11,1 9,7 2 1 E 1025,4 -
29.10.2020 07:00:00 11,3 10,4 13 7 ENE 1025,1 -
29.10.2020 06:00:00 9,8 8,9 4 2 NE 1024,8 -
29.10.2020 05:00:00 10,0 9,1 4 2 SW 1024,6 -
29.10.2020 04:00:00 10,7 9,6 4 2 NE 1024,3 -
29.10.2020 03:00:00 - - - - - - -
29.10.2020 02:00:00 11,4 10,1 4 2 ENE 1024,4 -
29.10.2020 01:00:00 11,8 10,2 0 0 N 1024,3 -
29.10.2020 00:00:00 12,3 10,7 4 2 S 1024,3 -
28.10.2020 23:00:00 13,1 11,3 2 1 W 1024,4 -
28.10.2020 22:00:00 13,6 11,3 4 2 SSW 1024,2 -
28.10.2020 21:00:00 15,0 12,1 4 2 ESE 1023,6 -
28.10.2020 20:00:00 16,5 11,8 5 3 W 1023,3 -
28.10.2020 19:00:00 17,9 11,7 8 4 NW 1022,4 30
28.10.2020 18:00:00 21,8 11,2 4 2 W 1021,7 -
28.10.2020 17:00:00 22,7 10,3 4 2 W 1021,7 -
28.10.2020 16:00:00 22,9 9,7 4 2 SSE 1021,8 40
28.10.2020 15:00:00 21,5 9,2 4 2 E 1022,0 -
28.10.2020 14:00:00 20,5 9,0 9 5 E 1022,7 -
28.10.2020 13:00:00 19,2 9,2 15 8 E 1023,4 40
28.10.2020 12:00:00 16,9 8,3 18 10 ENE 1024,4 -
28.10.2020 11:00:00 14,8 8,7 15 8 E 1024,3 -
28.10.2020 10:00:00 13,4 8,5 15 8 E 1024,4 30
28.10.2020 09:00:00 11,0 8,6 11 6 E 1024,1 -
28.10.2020 08:00:00 7,8 6,7 0 0 N 1023,7 -
28.10.2020 07:00:00 7,5 6,4 0 0 N 1023,3 -
28.10.2020 06:00:00 7,8 6,7 4 2 ENE 1022,9 -
28.10.2020 05:00:00 7,5 6,3 0 0 N 1022,5 -
28.10.2020 04:00:00 7,7 6,5 2 1 SSW 1022,5 -
28.10.2020 03:00:00 8,4 7,2 4 2 W 1022,6 -
28.10.2020 02:00:00 8,6 7,2 4 2 WSW 1022,4 -
28.10.2020 01:00:00 9,4 7,8 4 2 SW 1022,2 -
28.10.2020 00:00:00 10,2 8,5 0 0 N 1022,4 -
27.10.2020 23:00:00 10,9 8,8 0 0 N 1022,7 -
27.10.2020 22:00:00 11,6 9,0 0 0 N 1022,4 -
27.10.2020 21:00:00 12,6 8,7 4 2 NE 1022,2 -
27.10.2020 20:00:00 13,5 9,8 5 3 E 1021,9 -
27.10.2020 19:00:00 16,3 10,2 0 0 N 1020,9 30
27.10.2020 18:00:00 19,5 6,9 4 2 SW 1020,5 -
27.10.2020 17:00:00 20,2 5,5 2 1 SSE 1020,5 -
27.10.2020 16:00:00 20,1 6,0 5 3 SSW 1020,8 40
27.10.2020 15:00:00 19,6 4,9 4 2 SW 1021,0 -
27.10.2020 14:00:00 18,7 6,1 4 2 SE 1022,1 -
27.10.2020 13:00:00 17,0 8,2 4 2 ESE 1022,9 30
27.10.2020 12:00:00 14,4 7,5 4 2 ENE 1023,9 -
27.10.2020 11:00:00 13,3 7,5 5 3 ENE 1024,2 -
27.10.2020 10:00:00 10,3 7,4 8 4 E 1024,4 30
27.10.2020 09:00:00 8,7 7,1 4 2 ESE 1024,3 -
27.10.2020 08:00:00 5,4 4,4 0 0 N 1023,8 -
27.10.2020 07:00:00 5,5 4,5 4 2 SE 1023,3 -
27.10.2020 06:00:00 5,7 4,7 2 1 NW 1023,5 -
27.10.2020 05:00:00 5,7 4,7 4 2 SW 1023,0 -
27.10.2020 04:00:00 6,2 5,0 4 2 SW 1023,1 -
27.10.2020 03:00:00 6,8 5,6 0 0 N 1023,4 -
27.10.2020 02:00:00 7,2 5,8 4 2 SW 1023,5 -
27.10.2020 01:00:00 7,9 6,2 4 2 SSW 1023,6 -
27.10.2020 00:00:00 8,4 6,5 4 2 SW 1023,9 -
26.10.2020 23:00:00 9,0 7,0 4 2 WSW 1023,9 -
26.10.2020 22:00:00 10,0 7,6 0 0 N 1023,3 -
26.10.2020 21:00:00 10,8 7,5 4 2 S 1022,9 -
26.10.2020 20:00:00 12,0 7,1 5 3 ESE 1022,4 -
26.10.2020 19:00:00 14,8 6,1 0 0 N 1021,5 40
26.10.2020 18:00:00 17,3 4,2 13 7 NW 1020,9 -
26.10.2020 17:00:00 17,6 4,1 13 7 N 1020,7 -
26.10.2020 16:00:00 18,7 4,6 16 9 NW 1020,4 40
26.10.2020 15:00:00 19,1 3,9 8 4 NNW 1020,2 -
26.10.2020 14:00:00 18,8 4,3 11 6 NNW 1020,5 -
26.10.2020 13:00:00 18,1 5,7 11 6 NNW 1021,1 40
26.10.2020 12:00:00 17,1 6,7 13 7 NW 1021,5 -
26.10.2020 11:00:00 16,0 9,0 15 8 WSW 1021,5 -
26.10.2020 10:00:00 14,2 9,2 13 7 WSW 1021,4 40
26.10.2020 09:00:00 12,6 9,6 9 5 WSW 1021,2 -
26.10.2020 08:00:00 10,4 8,7 11 6 W 1020,3 -
26.10.2020 07:00:00 10,9 8,6 11 6 WSW 1019,5 -
26.10.2020 06:00:00 12,2 9,4 9 5 W 1019,5 -
26.10.2020 05:00:00 12,5 10,0 11 6 WSW 1018,9 -
26.10.2020 04:00:00 13,0 10,7 11 6 W 1018,4 -
26.10.2020 03:00:00 14,3 11,3 11 6 WSW 1018,2 -
26.10.2020 02:00:00 14,6 12,6 11 6 WSW 1017,9 -
26.10.2020 01:00:00 14,9 13,1 15 8 WSW 1017,0 -
26.10.2020 00:00:00 15,6 13,4 11 6 SW 1016,7 -
25.10.2020 23:00:00 16,6 15,1 29 16 SW 1016,3 -
25.10.2020 22:00:00 16,6 14,6 31 17 SW 1017,0 -
25.10.2020 21:00:00 18,1 13,4 22 12 SW 1017,2 -
25.10.2020 20:00:00 18,3 12,9 26 14 WSW 1017,8 -
25.10.2020 19:00:00 18,5 12,7 18 10 SW 1017,8 20
25.10.2020 18:00:00 19,1 12,4 16 9 SW 1017,7 -
25.10.2020 17:00:00 19,0 12,3 8 4 SSW 1018,1 -
25.10.2020 16:00:00 18,7 12,7 11 6 WSW 1018,7 20
25.10.2020 15:00:00 18,9 11,9 13 7 WSW 1019,6 -
25.10.2020 14:00:00 19,0 12,7 16 9 W 1020,8 -
25.10.2020 13:00:00 17,4 12,4 9 5 W 1022,1 16
25.10.2020 12:00:00 16,4 11,8 16 9 WSW 1023,1 -
25.10.2020 11:00:00 15,7 12,4 8 4 WSW 1023,2 -
25.10.2020 10:00:00 13,8 11,7 9 5 WNW 1023,7 10
25.10.2020 09:00:00 13,0 11,9 8 4 WSW 1023,5 -
25.10.2020 08:00:00 12,6 11,8 4 2 SSW 1023,1 -
25.10.2020 07:00:00 12,3 11,5 4 2 SSW 1023,0 -
25.10.2020 06:00:00 11,8 11,0 4 2 SSW 1023,1 -
25.10.2020 05:00:00 11,1 10,3 4 2 S 1023,2 -
25.10.2020 04:00:00 10,3 9,5 2 1 W 1023,3 -
25.10.2020 03:00:00 10,6 9,7 0 0 N 1024,1 -
25.10.2020 02:00:00 11,4 10,5 0 0 N 1024,4 -
25.10.2020 01:00:00 - - - - - - -
25.10.2020 00:00:00 11,9 10,8 8 4 S 1025,3 -
24.10.2020 23:00:00 12,1 10,8 4 2 SSW 1025,0 -
24.10.2020 22:00:00 13,3 11,7 4 2 S 1025,0 -
24.10.2020 21:00:00 14,3 12,5 4 2 S 1025,0 -
24.10.2020 20:00:00 15,4 12,7 5 3 SSW 1024,9 -

tt = temperature
td = dewpoint
ff = wind speed
dd = wind direction
ppp = reduced air pressure
vv = visibility

Next stations